Regional Weather Roundup
Issued by NWS

Home | Current Version | Previous Version | Graphics & Text | Print | Product List | Glossary Off
Versions: 1 2 3 4 5 6 7 8 9 10 11 12 13 14 15 16 17 18 19 20 21 22 23 24 25 26 27 28 29 30 31 32 33 34 35 36 37 38 39 40 41 42 43 44 45 46 47 48 49 50

000
ASUS43 KMPX 171810
RWRMN
WEATHER ROUNDUP FOR MINNESOTA
NATIONAL WEATHER SERVICE TWIN CITIES/CHANHASSEN MN
100 PM CDT FRI APR 17 2015


NOTE: "FAIR" INDICATES FEW OR NO CLOUDS BELOW 12,000 FEET WITH NO
SIGNIFICANT WEATHER AND/OR OBSTRUCTIONS TO VISIBILITY. N/A MEANS
CURRENT SKY AND/OR WEATHER CONDITIONS ARE NOT AVAILABLE.

MNZ060>063-068>070-171900-
   Twin Cities Metro

CITY           SKY/WX    TMP DP  RH WIND       PRES   REMARKS
TWIN CITIES    MOSUNNY   70  43  37 N3        30.07F
6HR MIN TEMP:  51; 6HR MAX TEMP:  71;

ST PAUL        SUNNY     70  42  36 W9        30.07F
CRYSTAL        SUNNY     71  41  33 NW8       30.07F
BLAINE         SUNNY     70  39  32 N9        30.08F
LAKEVILLE      SUNNY     70  46  43 NW3       30.07F
EDEN PRAIRIE   SUNNY     70  43  37 VRB5      30.07F
6HR MIN TEMP:  50; 6HR MAX TEMP:  71;

SOUTH ST PAUL  SUNNY     70  42  36 NW7       30.07F
LAKE ELMO      FAIR      70  45  40 N7        30.08F
$$
MNZ001>005-007-008-013>017-022>024-027-028-171900-
   Northwest Minnesota

CITY           SKY/WX    TMP DP  RH WIND       PRES   REMARKS
BEMIDJI        SUNNY     66  25  21 W17       30.07F
HALLOCK        SUNNY     73   9   8 W23G31    29.99F
ROSEAU         SUNNY     70  19  14 W22G29    29.98F
WARROAD        SUNNY     66  32  28 SW22G28   29.98F
THIEF RVR FALL SUNNY     68  23  18 SW17      30.06F
CROOKSTON      SUNNY     70  19  14 W18G25    30.07F
FOSSTON        SUNNY     64  23  20 W15G24    30.09F
DETROIT LAKES  SUNNY     64  23  20 W9        30.12F
MOORHEAD         N/A    N/A N/A N/A W7G18     30.11F
PARK RAPIDS    SUNNY     69  21  16 W8G16     30.08F
MAHNOMEN       FAIR      66  24  19 W16G24    30.09F
$$
MNZ006-009>011-018-025>026-171900-
   North Central Minnesota

CITY           SKY/WX    TMP DP  RH WIND       PRES   REMARKS
BAUDETTE       SUNNY     68  25  19 W18G33    29.99F
INTL FALLS     SUNNY     66  23  19 W18G25    30.00F
6HR MIN TEMP:  26; 6HR MAX TEMP:  66;

WASKISH        SUNNY     61  32  33 SW14      30.06F
BIG FORK       SUNNY     68  23  18 W13G20    30.06F
LONGVILLE      SUNNY     66  21  18 SW7       30.08F
GRAND RAPIDS   SUNNY     64  25  22 SW10      30.07F
ORR            SUNNY     66  16  14 SW12G17   30.01F
COOK           SUNNY     64  25  22 SW10      30.04F
WALKER         FAIR      66  21  18 SW10      30.06F
$$
MNZ012-019>021-037-171900-
   Northeast Minnesota

CITY           SKY/WX    TMP DP  RH WIND       PRES   REMARKS
DULUTH         SUNNY     68  31  25 W14       30.05F
6HR MIN TEMP:  43; 6HR MAX TEMP:  68;

ELY            SUNNY     63  21  20 W5G16     30.02F
HIBBING        SUNNY     68  24  19 W9        30.05F
EVELETH        SUNNY     63  23  22 W5        30.05F
DULUTH HARBOR  SUNNY     55  39  54 E6        30.07F
TWO HARBORS    SUNNY     66  39  37 SE10      30.04F
SILVER BAY     SUNNY     64  30  27 S12       30.03F
GRAND MARAIS     N/A     43  36  76 SW7       30.05F
G MARAIS ARPRT SUNNY     57  25  28 S9        30.04F
$$
MNZ029>031-032-039>041-046>048-054>057-064-171900-
   West Central Minnesota

CITY           SKY/WX    TMP DP  RH WIND       PRES   REMARKS
FERGUS FALLS   SUNNY     66  12  12 N7G16     30.12F
WHEATON        SUNNY     64  25  22 NW10      30.13F
MORRIS         SUNNY     68  23  18 NW12      30.10F
ALEXANDRIA     SUNNY     66  27  23 VRB3      30.11F
ELBOW LAKE     FAIR      65  22  19 W7        30.12F
WADENA         SUNNY     66  28  24 W12       30.10F
GLENWOOD       SUNNY     66  27  22 W6        30.11F
APPLETON       SUNNY     70  23  17 N7        30.10F
BENSON         SUNNY     70  25  18 CALM      30.10F
ORTONVILLE     SUNNY     66  19  16 N7        30.11F
MADISON        SUNNY     66  21  18 N9        30.11F
WILLMAR        FAIR      68  36  30 NW5       30.11F
$$
MNZ033>034-036-042>043-049>051-058-059-171900-
   Central Minnesota

CITY           SKY/WX    TMP DP  RH WIND       PRES   REMARKS
ST CLOUD       SUNNY     67  36  31 NW9       30.09F
6HR MIN TEMP:  43; 6HR MAX TEMP:  67;

SAUK CENTRE    FAIR      65  30  27 NW3       30.10F
PAYNESVILLE    SUNNY     65  31  28 N7        30.10F
AITKIN         SUNNY     68   7   9 S3        30.07F
PINE RIVER     SUNNY     64  28  25 SW6       30.11F
BRAINERD       SUNNY     65  21  18 CALM      30.09F
STAPLES        SUNNY     66  23  19 W7G16     30.10F
LONG PRAIRIE   FAIR      64  30  27 CALM      30.10F
LITTLE FALLS   SUNNY     64  21  19 W5        30.10F
LITCHFIELD     SUNNY     68  37  32 N5        30.10F
BUFFALO        SUNNY     68  37  31 NW5       30.09F
MAPLE LAKE     SUNNY     69  38  32 NW7       30.10F
$$
MNZ037-044-045-052-053-171900-
   East Central Minnesota

CITY           SKY/WX    TMP DP  RH WIND       PRES   REMARKS
PRINCETON      SUNNY     70  37  30 W6        30.08F
MORA           SUNNY     66  25  20 W7        30.09F
CAMBRIDGE      SUNNY     70  45  40 W7        30.06F
RUSH CITY      SUNNY     67  34  29 W7        30.08F
MOOSE LAKE     SUNNY     68  30  24 CALM      30.05F
HINCKLEY       FAIR      68  27  21 W5        30.08F
CLOQUET        SUNNY     66  19  16 S5        30.06F
MCGREGOR       SUNNY     64  27  24 SW6       30.08F
$$
MNZ071>073-080-081-089-090-097-098-171900-
   Southwest Minnesota

CITY           SKY/WX    TMP DP  RH WIND       PRES   REMARKS
MONTEVIDEO     SUNNY     72  34  25 N6        30.11F
GRANITE FALLS  SUNNY     68  37  32 N7        30.11F
CANBY          SUNNY     67  24  19 NW8       30.12F
MARSHALL       SUNNY     68  37  32 N8        30.10F
REDWOOD FALLS  SUNNY     71  41  33 NW10      30.08F
OLIVIA         SUNNY     68  36  30 W6        30.08F
PIPESTONE      SUNNY     70  37  30 NE6       30.10F
WINDOM         SUNNY     70  43  37 NW2       30.10F
WORTHINGTON    SUNNY     70  45  40 NE5       30.10F
JACKSON        SUNNY     70  41  35 NW3       30.10F
TRACY          SUNNY     69  40  34 N8        30.11F
SLAYTON        SUNNY     68  39  34 CALM      30.12S
$$
MNZ065>067-074>077-082>085-091>093-171900-
   South Central Minnesota

CITY           SKY/WX    TMP DP  RH WIND       PRES   REMARKS
MANKATO        SUNNY     70  45  40 N6        30.08F
NEW ULM        SUNNY     70  41  35 NW7       30.08F
ST JAMES       SUNNY     72  43  35 NW7       30.09F
FAIRMONT       SUNNY     73  45  35 NW5       30.08F
GLENCOE        SUNNY     70  46  42 N8        30.08F
FARIBAULT      SUNNY     72  46  40 W9        30.07F
OWATONNA       SUNNY     73  45  35 W8G16     30.07F
WASECA         SUNNY     72  48  43 W7        30.09F
ALBERT LEA     SUNNY     73  45  35 W5        30.07F
$$
MNZ078>079-086>088-094>096-171900-
   Southeast Minnesota

CITY           SKY/WX    TMP DP  RH WIND       PRES   REMARKS
ROCHESTER      SUNNY     72  45  37 NW9       30.08F
6HR MIN TEMP:  50; 6HR MAX TEMP:  72;

RED WING       SUNNY     75  43  31 NW9G18    30.04F
STANTON        SUNNY     72  46  40 N6        30.06F
DODGE CENTER   SUNNY     72  46  40 N7        30.07F
WINONA         SUNNY     73  43  33 N10       30.05F
AUSTIN         SUNNY     72  46  40 CALM      30.07F
PRESTON        SUNNY     71  44  38 W3        30.08F
$$
ABBREVIATIONS USED IN REMARKS
   TC - TEMPERATURES IN CELSIUS
  WCI - WIND CHILL INDEX
   HX - HEAT INDEX
  VSB - VISIBILITY
$$



USA.gov is the U.S. government's official web portal to all federal, state and local government web resources and services.